Hourly Data Report for September 01, 2017

All times are specified in Local Standard Time (LST). Add 1 hour to adjust for Daylight Saving Time where and when it is observed.

SATURNA ISLAND CS
BRITISH COLUMBIA

48°47'02.067" N
123°02'41.082" W
24.40 m
1017101
71473
WEZ

Download Data

Hourly Data (September 2017)
Hourly Data Report for September 1, 2017
Temp Definition
°C
Dew Point Temp Definition
°C
Rel Hum Definition
%
Wind Dir Definition
10's deg

Wind Spd Definition
km/h
Visibility Definition
km
Stn Press Definition
kPa
Hmdx Definition


Wind Chill Definition


Weather Definition


TIME
00:00 14.0 10.8 81 23 22   101.70     LegendNANA
01:00 13.3 11.1 86 23 17   101.72     LegendNANA
02:00 13.2 11.2 88 23 16   101.71     LegendNANA
03:00 13.2 11.2 88 23 15   101.74     LegendNANA
04:00 13.0 11.2 89 22 11   101.74     LegendNANA
05:00 12.9 11.1 89 23 12   101.76     LegendNANA
06:00 13.2 11.5 89 22 13   101.79     LegendNANA
07:00 14.6 12.0 85 23 7   101.86     LegendNANA
08:00 16.0 12.1 78 23 5   101.88     LegendNANA
09:00 16.6 11.7 72 19 3   101.89     LegendNANA
10:00 17.2 12.5 74 34 7   101.88     LegendNANA
11:00 18.1 12.3 69 19 1   101.83     LegendNANA
12:00 18.0 12.2 68 20 5   101.77     LegendNANA
13:00 21.2 13.4 61 34 7   101.74     LegendNANA
14:00 22.3 13.4 57 35 7   101.68 25   LegendNANA
15:00 21.1 13.7 63 33 3   101.61     LegendNANA
16:00 21.2 14.5 66 32 7   101.55 25   LegendNANA
17:00 20.0 14.7 72 32 3   101.51     LegendNANA
18:00 19.2 13.8 71 24 1   101.44     LegendNANA
19:00 18.5 12.2 67 21 4   101.42     LegendNANA
20:00 17.7 13.5 76 33 7   101.44     LegendNANA
21:00 18.1 13.2 73 30 5   101.44     LegendNANA
22:00 17.0 11.2 69 23 8   101.43     LegendNANA
23:00 17.3 11.2 67 21 9   101.42     LegendNANA

Notes on Data Quality.

Legend

  • E = Estimated
  • M = Missing
  • NA = Not Available
  • ‡ = Partner data that is not subject to review by the National Climate Archives
Date modified: